Page title

Corrida Feminino

 Coloc. NumeroNomeId.Fx.Et.Cl.Fx.Sx.C.EquipeTempo   
11963LUIZA CRAVO DE AZEVEDO22F2024-F00:22:45
21825LINDALRA SALES DA CUNHA45F4549-FGM RIO00:29:13
31718ALESSANDRA DE Sµ EARP SIQUEIRA40F4044-FMARCIO PUGA00:29:29
41735ANE MARIA LIMA42F4044-FCAMINHO00:30:00
51864MONICA CHEETARA GABRIEL44F4044-FRUNNERS RIO00:30:42
61237MARIA CELINA LUNA DA SILVA61F60641FAPPAI00:32:31
71764DANIELLE BENEVIDES31F30341FA&TENDURANCE00:33:43
81784FERNANDA VALE PACHECO DE MEDEIROS42F40441FMARCIO PUGA00:33:49
91710LIANA KAROBLYTE39F35391F#EUQUEROCORRER00:35:40
101538ROBERTA RANI LOPES MACHADO DOS SANTOS21F20241FAPPAI00:35:41
111967SOLANGE RODRIGUES FERNANDES64F60642F00:36:06
121761DAIANA MARIA DOS SANTOS DUTRA CORREA NETTO28F25291FVO2 PETROPOLIS00:36:49
131274NADIA MARIA RIBEIRO46F45491FAPPAI00:37:00
141050CARLA BARBOSA CRUZ DA SILVA31F30342FAPPAI00:37:32
151719ALESSANDRA PORTO DOS SANTOS34F30343FKITTY RUNNERS00:37:34
161384VIVIANI ALMEIDA COSTA VARGAS35F35392FAPPAI00:37:55
171969ANA LUCIA RANGEL52F50541F00:37:57
181012ALESSANDRA DA SILVA VIEIRA DE OLIVEIRA36F35393FAPPAI00:38:11
191013ALESSANDRA TEIXEIRA BRANCO38F35394FAPPAI00:38:45
201895ROSSITA APARECIDA DA SILVA51F50542F00:39:09
211064CLAUDIA VALERIA LEAL DE ANDRADE TEIXEIRA50F50543FAPPAI00:39:16
221802IRENE FRAN€A E SILVA DA COSTA75F70991FRUN AND COFFEE00:39:17
231332SIMONE BARBOSA SARMENTO33F30344FAPPAI00:39:22
241777ERIKA SOUSA39F35395F00:39:23
251172PAULA MALAFAIA SILVA47F45492FAPPAI00:39:52
261916VANESSA MORADA43F40442FVO2 PETROPOLIS00:39:59
271860MARLI JOAQUINA DA SILVA TENàRIO DE SOUZA39F35396FKITTY RUNNERS00:40:08
281374VERA LUCIA DE SOUSA FARIA54F50544FAPPAI00:40:29
291053CAROLINA DE LIMA ALVES BELO34F30345FAPPAI00:40:33
301002ADRIANA BARTHOLOMEU DE SOUZA44F40443FAPPAI00:40:46
311112ELISANGELA DOS SANTOS FERREIRA33F30346FAPPAI00:40:50
321011ALESSANDRA BEATRIZ CHANTRE DA SILVA36F35397FAPPAI00:40:53
331294REGIANE FERREIRA DE OLIVEIRA SILVA35F35398FAPPAI00:41:42
341894ROSENI VILA REAL MENDES54F50545FBIPBIP00:41:56
351760CRYS SANTOS38F35399F00:42:19
361091DENISE GOMES VALE FERREIRA37F353910FAPPAI00:42:41
371744CARLA PELUSO40F40444F00:43:02
381703CILEA ALVES GOMES38F353911F#EUQUEROCORRER00:43:16
391310ROSANA LOUZADA VIEIRA DA SILVA33F30347FAPPAI00:43:18
401238MARIA DA CONCEICAO CAETANO MELO RESENDE52F50546FAPPAI00:43:22
411020ALINE LEMOS DE ANDRADE36F353912FAPPAI00:43:23
421192LILIANE DA ROZA ALVES43F40445FAPPAI00:43:41
431287PATRICIA MOREIRA RABELLO DA SILVA39F353913FAPPAI00:43:50
441220MARCIA CRISTINA DE SOUZA46F45493FAPPAI00:44:20
451089DENISE DE AZEVEDO PEIXOTO49F45494FAPPAI00:45:01
461308ROSA MARIA PINTO DE SOUZA48F45495FAPPAI00:45:08
471804JENIFFER SILVA BARBOSA26F25292F00:45:12
481115ELIZABETH FRANCISCO DA FONSECA MAIA52F50547FAPPAI00:45:23
491297REGINA MARIA DE ABREU50F50548FAPPAI00:45:26
501371VANIA CURVELO MACHADO DE SOUZA38F353914FAPPAI00:45:35
511387YONA MENDES BEZERRA29F25293FAPPAI00:45:38
521388YONE MENDES BEZERRA DA SILVA25F25294FAPPAI00:45:39
531327SELMA MARIA DE CAMPOS FURTADO49F45496FAPPAI00:45:41
541315ROSE MARY PIMENTA DA SILVA53F50549FAPPAI00:45:42
551161JANETE ROQUE DA SILVA44F40446FAPPAI00:45:44
561007ADRIANA SOARES MOREIRA42F40447FAPPAI00:45:51
571067CLEMILDA JOSE DOS SANTOS MOREIRA64F60643FAPPAI00:45:52
581051CARMEM RITA ROQUE BARBOSA45F45497FAPPAI00:46:12
591924MARCELLE BOTTECHIA36F353915F00:46:17
601027ANA LICE FARIAS RONDELI52F505410FAPPAI00:46:31
611820KARLA LOPES DO ROSµRIO37F353916F00:46:32
621108ELIANE DA CUNHA NEY48F45498FAPPAI00:47:02
631959MARCIA GASPAR GINEFRA56F55591F00:47:13
641931RENATA DE SOUZA NOBRE35F353917F00:47:15
651035ANDREIA MARIA DA CUNHA TOLEDO39F353918FAPPAI00:47:25
661712PATRICIA CAETANO FERREIRA LOPES34F30348F#EUQUEROCORRER00:47:37
671244MARIA DE FATIMA DE ASSIS QUEIROZ DE PADUA55F55592FAPPAI00:47:41
681329SILVANA DE ARAGAO DA SILVA42F40448FAPPAI00:47:42
691336SIMONE LEAO SANTOS47F45499FAPPAI00:47:42
701907SUZANA FELIX LOUZADA DAEMON GUIMARAES35F353919F00:47:48
711383VIVIANE PINHO DE SOUZA38F353920FAPPAI00:47:50
721347SUENI DE SOUZA AROUCA34F30349FAPPAI00:48:05
731306ROBERTA GUERREIRO COSTA27F25295FAPPAI00:48:06
741893ROSEMARY SIDNEY GRILLO49F454910F00:48:07
751275NATHALIA DA SILVA DOMINGUES27F25296FAPPAI00:48:10
761016ALICE GUEDES DE ALMEIDA73F70992FAPPAI00:48:11
771092DENISE GUEDES DE ALMEIDA VERRI46F454911FAPPAI00:48:11
781032ANDREA DA SILVA BARBOSA FERREIRA43F40449FAPPAI00:48:12
791260MARTA MARIA PEREIRA SALLES SANTOS46F454912FAPPAI00:48:15
801854MARGARETE DE BARROS COSTA49F454913F00:48:17
811855MARIA ANTONIA SOUZA DA SILVA67F65691FPRà - SAéDE00:48:20
821701ANDREA FLORÒNCIO CARVALHO SOUZA38F353921F#EUQUEROCORRER00:48:27
831830LUCIANA SARDINHA DE VASCONCELOS37F353922F00:48:28
841872PATRÖCIA DAHER RIBEIRO RAMUNDO46F454914F00:48:28
851211LUCINEIDE VIEIRA DROLHE DA COSTA50F505411FAPPAI00:48:35
861168JESSICA GONCALVES NERY28F25297FAPPAI00:48:39
871956VANIA PEREIRA COUTO50F505412F#EUQUEROCORRER00:48:48
881102EDUARDA CHANTRE DA SILVA SOUZA16F16171FAPPAI00:48:53
891009AILCE RODRIGUES DUARTE DE AMORIM66F65692FAPPAI00:48:54
901352TANIA NOVELLO GATTO55F55593FAPPAI00:48:54
911254MARIANA QUEIROZ DE PADUA24F20242FAPPAI00:48:58
921774ELIANE DOS SANTOS BARNABE33F303410F00:49:21
931124ETIANI SANTOS NEUBRA MORETT33F303411FAPPAI00:49:29
941363VALERIA ALVES DE SOUZA52F505413FAPPAI00:49:33
951101EDNA NASCIMENTO SILVA50F505414FAPPAI00:49:38
961884RENATA DOS REIS CRUZ29F25298F00:49:41
971017ALICIA GUEDES DE ALMEIDA VERRI16F16172FAPPAI00:49:42
981188LIGIA CLARA FERRETI DE PAULA PORTO17F16173FAPPAI00:49:43
991076CRISTIANE MARIA MARCELO32F303412FAPPAI00:49:46
1001367VALERIA DOS SANTOS FERREIRA35F353923FAPPAI00:49:49
1011215MARA LILIA PORTO AUGUSTO MAXIMIANO37F353924FAPPAI00:49:56
1021711MARIANA FERRAZ MENDON€A34F303413F#EUQUEROCORRER00:49:59
1031037ANNE CAROLINE DE MEDEIROS LIMA27F25299FAPPAI00:50:02
1041202LUCIA MARIA CORREA RODRIGUES53F505415FAPPAI00:50:17
1051313ROSANGELA ALVES GONDIM46F454915FAPPAI00:50:18
1061130FERNANDA DA COSTA RIBEIRO DOS SANTOS35F353925FAPPAI00:50:22
1071088DEBORAH REGINA ABREU DOS SANTOS28F252910FAPPAI00:50:28
1081302RIODECIA MARQUES DA SILVA41F404410FAPPAI00:50:29
1091950ANA PAULA DOS SANTOS PEREIRA MEIRA36F353926F#EUQUEROCORRER00:51:00
1101063CLAUDIA DO VALE MADEIRA TERRA POMAR45F454916FAPPAI00:51:05
1111705CRISTIANE SILVA DE SOUZA45F454917F#EUQUEROCORRER00:51:14
1121766DEBORA HAUBRICHS PORRAL AGUIAR31F303414F00:51:15
1131908SUZY KUMMER DA ROCHA42F404411FCHÇO DO ATERRO00:51:31
1141093DENISE STELMAN BARBOSA55F55594FAPPAI00:51:44
1151154ISIS DE SANTANA SEIXAS59F55595FAPPAI00:51:45
1161878PRISCILLA MANHÇES DE SOUZA PINTO33F303415F00:51:48
1171052CAROLINA ABREU NASSIF36F353927FAPPAI00:51:49
1181056CELIA MARIA FERREIRA PINTO61F60644FAPPAI00:51:50
1191233MARIA ALICE FERNANDES DE OLIVEIRA53F505416FAPPAI00:51:50
1201318SABRINA LARA NASCIMENTO38F353928FAPPAI00:51:53
1211212LUZIA DE OLIVEIRA BARBOSA60F60645FAPPAI00:52:04
1221077CRISTIANE MASCARENHAS CORREIA34F303416FAPPAI00:52:08
1231259MARLI MARINS DOS SANTOS64F60646FAPPAI00:52:09
1241953GABRIELA ALVES CORREIA DOS RAMOS26F252911F#EUQUEROCORRER00:52:09
1251270MONICA SANT ANNA GOMEZ47F454918FAPPAI00:52:17
1261289DANILA FERNANDES DE OLIVEIRA MORENO28F252912FAPPAI00:52:18
1271178JUSSIARA DE OLIVEIRA BRITO64F60647FAPPAI00:52:20
1281386YARA DE OLIVEIRA BRITO33F303417FAPPAI00:52:21
1291801ILA CUNHA FERNANDES29F252913FPROGRAMA QUALIDADE DE VIDA - ESEM00:52:47
1301381VIVIANE FALQUETO MARQUES39F353929FAPPAI00:52:52
1311256MARINETE VIEIRA BEZERRA64F60648FAPPAI00:52:54
1321823LEILA MARIA ROSALINSKI DE ANDRADE58F55596F00:52:54
1331333SIMONE CRISTINA RIBEIRO37F353930FAPPAI00:53:01
1341171JOYCE DOS SANTOS E SOUZA33F303418FAPPAI00:53:20
1351251MARIA MARTA DOS SANTOS E SOUZA59F55597FAPPAI00:53:20
1361006ADRIANA LOPES DE OLIVEIRA43F404412FAPPAI00:53:22
1371080DAIANE LOPES DE OLIVEIRA20F20243FAPPAI00:53:22
1381110ELIETE SILVA CAMPOS52F505417FAPPAI00:53:49
1391183LEDA DE CARVALHO MENDES54F505418FAPPAI00:53:49
1401236MARIA BARBOZA53F505419FAPPAI00:53:52
1411776ELINEUZA FERREIRA FONTES46F454919F00:53:57
1421857MARIA JOSE VENTURA PEDROSA72F70993FAVULSO00:53:58
1431868NATASHA SANFILIPPO FONTES VIGLIO31F303419F00:53:58
1441118ELOHA DE ABREU MACHADO REZENDE LIMA25F252914FAPPAI00:54:17
1451030ANALICE DIAS DA SILVA60F60649FAPPAI00:54:24
1461240MARIA DA GLORIA DOS SANTOS31F303420FAPPAI00:54:24
1471762DANIELA FERREIRA PEIXOTO PEDRA26F252915F00:54:33
1481156JACQUELINE OLIVEIRA DA COSTA50F505420FAPPAI00:54:41
1491910TERESINHA FREITAS56F55598F00:54:48
1501324SARAH SIQUEIRA MARTINS33F303421FAPPAI00:54:53
1511145GIULI ANA LARA NASCIMENTO DE CARVALHO18F18191FAPPAI00:54:54
1521210LUCIENE DE OLIVEIRA BRAGA42F404413FAPPAI00:54:59
1531165JARDELINA MARQUES SANTANA RODRIGUES50F505421FAPPAI00:55:17
1541225MARCIA LUCIA DA SILVA CABRAL50F505422FAPPAI00:55:18
1551169JEYSA DA SILVA CABRAL50F505423FAPPAI00:55:20
1561134FLAVIA BARBOSA DA SILVA DUTRA39F353931FAPPAI00:55:23
1571322SANDRA OLIVEIRA DE SANTANNA FELIX49F454920FAPPAI00:55:23
1581195LILIANE SANTOS SILVA37F353932FAPPAI00:55:28
1591706DENISE OLIVEIRA NUNES DA SILVA51F505424F#EUQUEROCORRER00:55:28
1601377VERONICA DOS SANTOS MEDEIROS18F18192FAPPAI00:55:48
1611364VALERIA BRAUNS CAZELGRANDI SOUTINHO55F55599FAPPAI00:55:49
1621842MARCIA NUNES59F555910F00:55:49
1631266MIRKA GEROLIMICH DE ABREU41F404414FAPPAI00:55:50
1641856MARIA ELIENE DE OLIVEIRA42F404415F00:56:04
1651181LARISSA DOS SANTOS CARVALHO23F20244FAPPAI00:56:15
1661191THAYNA DA SILVA17F16174FAPPAI00:56:39
1671353TATIANA DE JESUS DA SILVA41F404416FAPPAI00:56:42
1681014ALEXANDRA ROMANA DA SILVA44F404417FAPPAI00:57:09
1691045BIANCA SOARES MOREIRA32F303422FAPPAI00:57:09
1701129FATIMA THOMAZ PAIXAO DA FONSECA57F555911FAPPAI00:57:24
1711086DEBORA GRANJA CARVALHO48F454921FAPPAI00:57:39
1721277NEUZA NASCIMENTO DA CUNHA65F65693FAPPAI00:57:41
1731079CRISTINA DA COSTA PESSOA49F454922FAPPAI00:57:58
1741083DAYSE REBELO DA TORRE49F454923FAPPAI00:58:32
1751382VIVIANE LAZARINI GUIMARAES40F404418FAPPAI00:58:49
1761054CAROLINA FERREIRA BARBOSA36F353933FAPPAI00:58:53
1771342SOLANGE ELIZA DIAS MENDES FIGUEIREDO47F454924FAPPAI00:58:53
1781349SUZI SILVA SOUZA51F505425FAPPAI00:59:25
1791148HAROLDO HIPOLITO DA COSTA JUNIOR46F454925FAPPAI00:59:43
1801296REGINA DOS SANTOS BAZILIO53F505426FAPPAI01:00:31
1811004ADRIANA DE CARVALHO TEIXEIRA NETTO43F404419FAPPAI01:00:48
1821078CRISTIANE SILVESTRE DOS SANTOS BRAGA38F353934FAPPAI01:01:09
1831106ELIANA GUIMARAES DOS SANTOS DE OLIVEIRA61F606410FAPPAI01:01:11
1841090DENISE DIAS DOS SANTOS46F454926FAPPAI01:01:20
1851204LUCIANA CARVALHO DE ALMEIDA30F303423FAPPAI01:01:20
1861201LUCIA GABRIELE DE OLIVEIRA LONGO33F303424FAPPAI01:01:50
1871221MARCIA DE ALMEIDA VILLAS BOAS56F555912FAPPAI01:02:15
1881214MALKA RUBIA PATRICIA REVITTO BRUM DOS SANTOS42F404420FAPPAI01:03:32
1891087DEBORA PEREIRA DE SOUSA PINTO34F303425FAPPAI01:03:44
1901187LETICIA ANDRADE DE AZEVEDO MORENO44F404421FAPPAI01:03:49
1911040ANDREA OLIVEIRA MARRON PINTO50F505427FAPPAI01:03:54
1921783FERNANDA FERREIRA TORRES18F18193F01:03:57
1931137FLAVIA GONCALVES DA SILVA MENDES40F404422FAPPAI01:04:16
1941180KEIT LIMA BRUM41F404423FAPPAI01:04:16
1951282PATRICIA BIGNON GOULART39F353935FAPPAI01:04:17
1961190LIGIA MARIA ALVES BIZARRIA70F70994FAPPAI01:04:35
1971194LILIANE OLIVEIRA DA SILVA DE ALMEIDA RAYMUNDO36F353936FAPPAI01:05:45
1981370VANESSA VIEIRA DA SILVA35F353937FAPPAI01:05:47
1991325SELMA DA SILVA SANTANA49F454927FAPPAI01:05:59
2001304RITA DE CASSIA PEREIRA PRINCISVAL51F505428FAPPAI01:06:40
2011070CRISTIANE CICCHELI DE FREITAS47F454928FAPPAI01:06:42
2021906STAEL DE BARROS COSTA51F505429F01:06:48
2031147GRAZIELE GOULART DE VASCONCELLOS38F353938FAPPAI01:07:05
2041132FERNANDA MIRA MACHADO DA SILVA36F353939FAPPAI01:07:06
2051326TATIANE ANDERSON TAXA PEREIRA37F353940FAPPAI01:07:06
2061335SIMONE KATE MAIA DOS SANTOS41F404424FAPPAI01:07:06
2071111ELIS REGINA DA SILVA NASCIMENTO33F303426FAPPAI01:07:19
2081726ANA W LEAL50F505430F01:07:55
2091869NIURA BLANCO56F555913F01:07:56
2101133FLAVIA AMARAL DO COUTO DIAS42F404425FAPPAI01:07:59
2111709ILIENE MARIA EMERICK MORAIS52F505431F#EUQUEROCORRER01:08:03
2121704CILENE ALVES GOMES48F454929F#EUQUEROCORRER01:08:04
2131044BIANCA CONCEICAO DUARTE DE AMORIM33F303427FAPPAI01:08:13
2141753CELIA REGINA BASTOS NOGUEIRA42F404426F01:08:17
2151223MARCIA DE SOUZA MARTINS DE CARVALHO48F454930FAPPAI01:08:37
2161267MONICA CABRAL RIBEIRO29F252916FAPPAI01:08:56
2171029ANA PAULA FERNANDES DE MOURA ASSIS55F555914FAPPAI01:09:05
2181261MEIBY BRANDAO AMADO ASSIS27F252917FAPPAI01:09:05
2191001ADRIANA ANTONIA DOS SANTOS LIMA43F404427FAPPAI01:09:19
2201207LUCIANA MAIA PEIXOTO38F353941FAPPAI01:09:19
2211227MARCIA MATTOS E SILVA OLIVEIRA47F454931FAPPAI01:09:38
2221023ANA CARINA DA SILVA SANTANA25F252918FAPPAI01:09:39
2231072CRISTIANE DANTAS DE SOUSA39F353942FAPPAI01:09:42
2241366VALERIA CRISTINA DO AMARAL ALVES47F454932FAPPAI01:09:42
2251365VALERIA CRISTINA DANTAS DE SOUSA48F454933FAPPAI01:09:43
2261283PATRICIA DE OLIVEIRA BITTENCOURT45F454934FAPPAI01:09:57
2271055CECILIA ALVES DE FRANCA PIMENTEL64F606411FAPPAI01:09:58
2281198LIVIA DE FRANCA PIMENTEL28F252919FAPPAI01:10:00
2291290RACHEL BAPTISTA DE SOUZA18F18194FAPPAI01:10:04
2301305ROBERTA DE ARAUJO BINATTI39F353943FAPPAI01:10:05
2311094DEYSE MARA RIBEIRO DA SILVA47F454935FAPPAI01:10:49
2321185LEILA DA FONSECA LOURENCO43F404428FAPPAI01:10:51
2331250MARIA MANUELA VITORIA FONSECA LOURENCO17F16175FAPPAI01:10:51
2341213LUZINETE SOARES DE LIMA46F454936FAPPAI01:12:09
2351255MARIANGELA FURTADO FONTES51F505432FAPPAI01:12:35
2361107ELIANE ALVES DA COSTA46F454937FAPPAI01:13:26
2371143GILMARA GLORIA CANDIDO FONSECA GRAMOSO39F353944FAPPAI01:13:26
2381750CARMELIA DOS REIS CRUZ52F505433F01:14:00
2391121ERICA FERREIRA DE MOURA COELHO31F303428FAPPAI01:14:01
2401034ANDREIA CRISTINA GOMES SOUZA FERREIRA48F454938FAPPAI01:14:02
2411866MYLÔNE VANESSA CHANFAYS41F404429F01:14:45
2421104ELIANA BESERRA DA SILVA48F454939FAPPAI01:14:47
2431113ELISANGELA SAISSE DE MELO43F404430FAPPAI01:14:49
2441337SIMONE PEQUENO AMORIM BARTHOLOMEU44F404431FAPPAI01:15:25
2451060CLAUDIA COSTA MOREIRA44F404432FAPPAI01:16:03
2461331SILVIA FERREIRA RIBEIRO37F353945FAPPAI01:16:49
2471105ELIANA DOS ANJOS FERREIRA59F555915FAPPAI01:17:06
2481241MARIA DA PAIXAO DE CARVALHO FERREIRA63F606412FAPPAI01:17:31
2491010ALCIONE BARBOSA XAVIER44F404433FAPPAI01:17:58
2501182LAURA MARIA MACIEL RODRIGUES56F555916FAPPAI01:17:58
2511345SONIA REGINA NOVAIS DE AZEVEDO66F65694FAPPAI01:18:06
2521360THANIA REGINA DE CARVALHO FERREIRA36F353946FAPPAI01:20:35
2531174JULIANA DA SILVA BRUM27F252920FAPPAI01:20:45
2541206LUCIANA DE JESUS DA SILVA44F404434FAPPAI01:20:46
2551278NILZA DA ANUNCIACAO DOS REIS MOITA60F606413FAPPAI01:20:57
2561867NATALIA ABRANCHE24F20245FMOLE01:22:47
2571892ROSANE LUZES60F606414FMOLE01:22:47
2581295REGINA CELIA PECANHA45F454940FAPPAI01:26:15